PulseSat

PulseSat

GORIZONT 17 [-]

Last updated on Dec. 18, 2017, 12:19 a.m. UTC

1 19765U 89004A   17351.19907062 -.00000005  00000-0  00000-0 0  9996
2 19765  15.1483 358.8291 0015201  85.9396 107.9576  0.99065485104823
UTC
Height (km)
Latitude
Longitude
Inclination
Orbital Period

Next 30 passes for location: Hong Kong

Rise time Rise Azimuth (degrees) Set time Set Azimuth (degrees) Duration Max altitude (degrees)
2017/12/18 21:00:25 UTC
282.30°
282.30° 2017/12/18 03:14:13 UTC
270.13°
270.13° -1067.0 min 47.0 sec 4.46°

PulseSat

PulseSat is the new satellites software and hardware trackering solution by Pulsely.
Satellite Two Line Element Set source: US Air Force Space Command

Download PulseSat for iOS
© 2017 Pulsely Limited